TimeEDT,TemperatureF,Dew PointF,Humidity,Sea Level PressureIn,VisibilityMPH,Wind Direction,Wind SpeedMPH,Gust SpeedMPH,PrecipitationIn,Events,Conditions,WindDirDegrees,DateUTC
12:15 AM,62.6,62.6,100,29.76,10.0,ENE,4.6,-,N/A,Rain,Light Rain,70,2012-10-02 04:15:00
12:35 AM,62.6,62.6,100,29.76,10.0,Calm,Calm,-,N/A,,Unknown,0,2012-10-02 04:35:00
12:55 AM,62.6,62.6,100,29.76,3.0,Calm,Calm,-,0.04,Rain,Light Rain,0,2012-10-02 04:55:00
1:15 AM,62.6,62.6,100,29.77,5.0,Calm,Calm,-,N/A,Rain,Light Rain,0,2012-10-02 05:15:00
1:35 AM,62.6,62.6,100,29.76,5.0,ENE,4.6,-,0.04,Rain,Light Rain,60,2012-10-02 05:35:00
1:55 AM,62.6,62.6,100,29.76,8.0,Calm,Calm,-,0.04,Rain,Light Rain,0,2012-10-02 05:55:00
2:35 AM,62.6,62.6,100,29.77,2.0,Calm,Calm,-,0.07,Rain,Light Rain,0,2012-10-02 06:35:00
2:55 AM,62.6,62.6,100,29.76,2.0,North,4.6,-,0.10,Rain,Light Rain,10,2012-10-02 06:55:00
3:15 AM,62.6,62.6,100,29.76,3.0,NE,5.8,-,0.05,Rain,Light Rain,50,2012-10-02 07:15:00
3:35 AM,62.6,62.6,100,29.76,2.5,NE,5.8,-,0.14,Rain,Rain,50,2012-10-02 07:35:00
3:55 AM,64.4,64.4,100,29.75,3.0,NE,4.6,-,0.19,Rain,Light Rain,50,2012-10-02 07:55:00
4:15 AM,64.4,64.4,100,29.76,2.5,NE,5.8,-,0.01,Rain,Light Rain,50,2012-10-02 08:15:00
4:35 AM,62.6,62.6,100,29.75,2.5,ENE,4.6,-,0.04,Rain,Light Rain,60,2012-10-02 08:35:00
4:55 AM,64.4,64.4,100,29.75,3.0,ENE,4.6,-,0.04,Rain,Light Rain,60,2012-10-02 08:55:00
5:15 AM,64.4,64.4,100,29.75,5.0,ENE,6.9,-,N/A,Rain,Light Rain,60,2012-10-02 09:15:00
5:35 AM,64.4,64.4,100,29.76,10.0,ENE,6.9,-,N/A,,Unknown,60,2012-10-02 09:35:00
5:55 AM,64.4,64.4,100,29.76,10.0,NE,4.6,-,N/A,,Unknown,40,2012-10-02 09:55:00
6:15 AM,64.4,64.4,100,29.75,10.0,NE,3.5,-,N/A,,Unknown,40,2012-10-02 10:15:00
6:35 AM,64.4,64.4,100,29.76,10.0,NNE,6.9,-,N/A,,Unknown,30,2012-10-02 10:35:00
6:55 AM,64.4,64.4,100,29.76,10.0,NE,4.6,-,N/A,,Unknown,40,2012-10-02 10:55:00
7:15 AM,64.4,64.4,100,29.76,10.0,NE,4.6,-,N/A,,Unknown,50,2012-10-02 11:15:00
7:35 AM,66.2,64.4,94,29.77,10.0,NE,3.5,-,N/A,,Unknown,50,2012-10-02 11:35:00
7:55 AM,66.2,64.4,94,29.77,10.0,NNE,3.5,-,N/A,,Unknown,30,2012-10-02 11:55:00
8:15 AM,64.4,64.4,100,29.78,10.0,ENE,4.6,-,N/A,,Overcast,70,2012-10-02 12:15:00
8:35 AM,66.2,64.4,94,29.79,10.0,East,4.6,-,N/A,,Overcast,80,2012-10-02 12:35:00
8:55 AM,66.2,64.4,94,29.79,10.0,Calm,Calm,-,N/A,,Overcast,0,2012-10-02 12:55:00
9:15 AM,66.2,66.2,100,29.79,10.0,East,5.8,-,N/A,,Overcast,90,2012-10-02 13:15:00
9:35 AM,68.0,66.2,94,29.79,10.0,NE,5.8,-,N/A,,Mostly Cloudy,50,2012-10-02 13:35:00
9:55 AM,68.0,66.2,94,29.80,10.0,ENE,8.1,-,N/A,,Overcast,60,2012-10-02 13:55:00
10:15 AM,68.0,66.2,94,29.80,10.0,ENE,5.8,-,N/A,,Overcast,70,2012-10-02 14:15:00
10:35 AM,69.8,66.2,88,29.80,10.0,ESE,6.9,-,N/A,,Overcast,120,2012-10-02 14:35:00
10:55 AM,71.6,66.2,83,29.80,10.0,ESE,5.8,-,N/A,,Mostly Cloudy,110,2012-10-02 14:55:00
11:15 AM,71.6,66.2,83,29.80,10.0,Calm,Calm,-,N/A,,Overcast,0,2012-10-02 15:15:00
11:35 AM,73.4,66.2,78,29.80,10.0,SE,3.5,-,N/A,,Overcast,130,2012-10-02 15:35:00
11:55 AM,73.4,68.0,83,29.80,10.0,SSE,6.9,-,N/A,,Overcast,160,2012-10-02 15:55:00
12:15 PM,73.4,68.0,83,29.80,10.0,SE,5.8,-,N/A,,Mostly Cloudy,140,2012-10-02 16:15:00
12:35 PM,75.2,68.0,78,29.80,10.0,West,6.9,-,N/A,,Scattered Clouds,270,2012-10-02 16:35:00
12:55 PM,75.2,68.0,78,29.80,10.0,West,6.9,-,N/A,,Scattered Clouds,270,2012-10-02 16:55:00
1:15 PM,75.2,68.0,78,29.80,10.0,WSW,4.6,-,N/A,,Partly Cloudy,250,2012-10-02 17:15:00
1:35 PM,75.2,66.2,73,29.80,10.0,WSW,9.2,-,N/A,,Scattered Clouds,250,2012-10-02 17:35:00
1:55 PM,77.0,66.2,69,29.79,10.0,WSW,10.4,-,N/A,,Partly Cloudy,240,2012-10-02 17:55:00
2:15 PM,77.0,66.2,69,29.80,10.0,WSW,10.4,-,N/A,,Partly Cloudy,250,2012-10-02 18:15:00
2:35 PM,77.0,66.2,69,29.80,10.0,WSW,11.5,-,N/A,,Scattered Clouds,240,2012-10-02 18:35:00
2:55 PM,78.8,64.4,61,29.80,10.0,SSW,12.7,17.3,N/A,,Partly Cloudy,210,2012-10-02 18:55:00
3:15 PM,78.8,64.4,61,29.80,10.0,WSW,13.8,-,N/A,,Clear,240,2012-10-02 19:15:00
3:35 PM,77.0,64.4,65,29.81,10.0,WSW,10.4,-,N/A,,Partly Cloudy,250,2012-10-02 19:35:00
4:35 PM,73.4,62.6,69,29.84,10.0,West,9.2,-,N/A,,Overcast,280,2012-10-02 20:35:00
4:55 PM,73.4,62.6,69,29.85,10.0,NW,6.9,-,N/A,,Mostly Cloudy,310,2012-10-02 20:55:00
5:15 PM,73.4,62.6,69,29.86,10.0,WNW,6.9,-,N/A,,Overcast,300,2012-10-02 21:15:00
5:35 PM,73.4,60.8,65,29.86,10.0,WNW,5.8,-,N/A,,Overcast,290,2012-10-02 21:35:00
5:55 PM,75.2,62.6,65,29.87,10.0,West,4.6,-,N/A,,Mostly Cloudy,270,2012-10-02 21:55:00
6:15 PM,73.4,60.8,65,29.88,10.0,West,3.5,-,N/A,,Scattered Clouds,270,2012-10-02 22:15:00
6:35 PM,71.6,62.6,73,29.89,10.0,WSW,4.6,-,N/A,,Mostly Cloudy,250,2012-10-02 22:35:00
6:55 PM,71.6,60.8,69,29.90,10.0,West,5.8,-,N/A,,Overcast,260,2012-10-02 22:55:00
7:15 PM,71.6,60.8,69,29.90,10.0,WSW,4.6,-,N/A,,Overcast,250,2012-10-02 23:15:00
7:35 PM,69.8,60.8,73,29.91,10.0,WSW,3.5,-,N/A,,Unknown,250,2012-10-02 23:35:00
7:55 PM,68.0,60.8,78,29.92,10.0,West,5.8,-,N/A,,Unknown,260,2012-10-02 23:55:00
8:15 PM,68.0,60.8,78,29.94,10.0,SW,5.8,-,N/A,,Unknown,230,2012-10-03 00:15:00
8:35 PM,66.2,60.8,83,29.95,10.0,Calm,Calm,-,N/A,,Unknown,0,2012-10-03 00:35:00
8:55 PM,66.2,60.8,83,29.95,10.0,Calm,Calm,-,N/A,,Unknown,0,2012-10-03 00:55:00
9:15 PM,66.2,62.6,88,29.96,10.0,Calm,Calm,-,N/A,,Unknown,0,2012-10-03 01:15:00
9:35 PM,64.4,60.8,88,29.97,10.0,Calm,Calm,-,N/A,,Unknown,0,2012-10-03 01:35:00
9:55 PM,64.4,62.6,94,29.98,10.0,Calm,Calm,-,N/A,,Unknown,0,2012-10-03 01:55:00
10:15 PM,62.6,60.8,94,29.99,10.0,Calm,Calm,-,N/A,,Unknown,0,2012-10-03 02:15:00
10:55 PM,62.6,60.8,94,30.00,10.0,Calm,Calm,-,N/A,,Unknown,0,2012-10-03 02:55:00
11:15 PM,62.6,60.8,94,30.00,10.0,Calm,Calm,-,N/A,,Unknown,0,2012-10-03 03:15:00
11:35 PM,62.6,60.8,94,30.00,10.0,Calm,Calm,-,N/A,,Unknown,0,2012-10-03 03:35:00
11:55 PM,62.6,62.6,100,30.00,10.0,Calm,Calm,-,N/A,,Unknown,0,2012-10-03 03:55:00